                ,  1.165,  1.315,  1.465,  1.615,  1.765,  1.915,  2.065,  2.215,  2.365,  2.515,  2.665,  2.815,  2.965,  3.115,  3.265,  3.415,  3.565,  3.715,  3.865,  4.015,  4.165,  4.315,  4.465,  4.615,  4.765,  4.915,  5.065,  5.215,  5.365,  5.515
2005/09/17 00:00,   -2.0,   -1.9,   -1.7,   -1.4,  999.0,  999.0,  999.0,  999.0,  999.0,   -0.1,  999.0,  999.0,  999.0,  999.0,    0.1,  999.0,  999.0,    0.0,    0.3,  999.0,  999.0,   -0.9,   -0.3,  999.0,  999.0,  999.0,  999.0,  999.0,  999.0,  999.0
2005/09/17 00:10,   -2.0,   -1.8,   -0.9,   -0.6,   -0.6,    0.5,  999.0,  999.0,   -0.2,  999.0,  999.0,  999.0,   -0.0,   -0.1,    0.1,  999.0,   -0.1,    0.1,    0.2,   -0.1,   -0.1,   -0.3,   -0.1,   -0.0,  999.0,  999.0,  999.0,  999.0,  999.0,  999.0
2005/09/17 00:20,   -0.8,   -2.1,    0.1,   -0.1,   -0.4,  999.0,  999.0,  999.0,  999.0,   -0.1,   -0.1,  999.0,  999.0,   -0.2,    0.3,  999.0,    0.3,    0.0,    0.1,    0.1,  999.0,   -0.3,   -0.1,  999.0,  999.0,  999.0,  999.0,  999.0,  999.0,  999.0
2005/09/17 00:30,   -0.7,   -0.7,   -0.6,  999.0,  999.0,  999.0,  999.0,  999.0,  999.0,  999.0,  999.0,  999.0,    0.2,  999.0,  999.0,    0.1,  999.0,  999.0,   -0.2,  999.0,   -0.4,    0.1,   -0.2,    0.1,  999.0,  999.0,  999.0,  999.0,  999.0,  999.0
2005/09/17 00:40,    0.6,  999.0,  999.0,  999.0,  999.0,  999.0,   -0.2,   -0.1,   -0.4,  999.0,  999.0,   -0.1,    0.1,    0.0,   -0.2,  999.0,  999.0,    0.1,    0.1,   -0.1,  999.0,  999.0,   -0.4,   -0.1,  999.0,  999.0,  999.0,  999.0,  999.0,  999.0
2005/09/17 00:50,    0.4,  999.0,  999.0,  999.0,  999.0,  999.0,  999.0,  999.0,   -0.3,  999.0,  999.0,    0.0,    0.0,  999.0,  999.0,   -0.3,  999.0,    0.0,    0.2,    0.1,   -0.0,   -0.2,   -0.2,   -0.1,  999.0,  999.0,   -1.0,   -1.1,   -1.3,   -1.3
2005/09/17 01:00,  999.0,  999.0,  999.0,  999.0,  999.0,  999.0,    0.1,   -0.0,   -0.2,   -0.7,    0.1,    0.0,  999.0,    0.3,   -0.0,  999.0,  999.0,  999.0,  999.0,  999.0,  999.0,   -0.1,    0.0,   -0.2,  999.0,   -1.2,   -1.4,   -1.3,   -1.2,   -1.2
2005/09/17 01:10,    0.1,   -1.5,  999.0,    0.4,  999.0,  999.0,   -0.7,   -0.7,    0.1,    0.0,  999.0,  999.0,  999.0,   -0.0,    0.2,  999.0,  999.0,  999.0,  999.0,  999.0,  999.0,   -0.3,   -0.2,   -0.4,   -1.3,   -1.5,   -1.3,   -1.2,   -1.1,   -1.2
2005/09/17 01:20,   -0.1,    0.9,  999.0,  999.0,   -4.9,   -5.5,   -5.2,   -5.1,   -4.6,   -4.5,   -4.2,   -3.7,   -3.7,   -3.6,   -3.8,   -3.8,   -3.9,   -3.9,   -3.9,   -3.9,   -2.4,   -1.5,   -1.6,   -1.6,   -1.6,   -1.6,   -1.5,   -1.3,   -0.9,   -0.9
2005/09/17 01:30,   -4.8,   -3.6,   -4.6,   -5.1,   -5.1,   -4.8,   -4.6,   -4.7,   -4.5,   -4.4,   -4.9,   -4.9,   -4.6,   -4.7,   -4.7,   -4.6,   -4.5,   -4.2,   -4.3,   -4.3,   -3.0,   -2.0,   -1.6,   -1.8,   -1.9,   -1.6,   -1.6,   -1.2,   -0.8,   -0.7
2005/09/17 01:40,   -3.7,   -3.6,   -3.7,   -3.8,   -4.0,   -4.1,   -3.9,   -3.6,   -3.3,   -3.2,   -2.8,   -2.6,   -2.3,   -2.6,   -2.4,   -2.6,   -2.5,   -1.6,   -1.6,   -1.9,   -1.7,   -0.5,   -0.2,  999.0,   -1.2,  999.0,   -0.9,   -1.1,   -0.2,   -0.4
2005/09/17 01:50,   -0.5,    0.1,   -3.7,   -3.4,   -2.9,   -3.2,   -3.3,   -2.8,   -3.1,   -2.8,   -2.6,   -2.4,   -2.1,   -2.3,   -1.9,   -2.0,   -2.0,   -1.2,   -1.3,   -1.9,   -1.6,  999.0,   -0.1,   -0.0,  999.0,  999.0,  999.0,   -0.1,  999.0,  999.0
2005/09/17 02:00,    0.1,    0.2,    0.0,  999.0,  999.0,  999.0,  999.0,  999.0,  999.0,  999.0,  999.0,  999.0,   -0.1,  999.0,  999.0,   -1.2,  999.0,   -0.1,   -0.7,   -0.4,  999.0,  999.0,    0.0,    0.0,  999.0,  999.0,  999.0,  999.0,  999.0,   -1.4
2005/09/17 02:10,  999.0,    0.3,   -0.2,   -0.4,  999.0,  999.0,   -0.1,  999.0,  999.0,    0.1,   -0.5,   -0.2,   -0.1,   -0.3,    0.0,   -0.3,    0.1,    0.0,   -0.0,  999.0,   -0.0,  999.0,   -0.1,  999.0,  999.0,  999.0,  999.0,  999.0,   -0.2,   -1.3
2005/09/17 02:20,    0.3,    0.4,  999.0,    0.1,  999.0,  999.0,  999.0,  999.0,  999.0,  999.0,  999.0,  999.0,   -0.1,    0.1,    0.2,    0.4,  999.0,   -0.1,   -0.1,   -0.3,   -0.2,   -0.2,    0.1,    0.3,  999.0,  999.0,   -1.2,   -1.0,   -1.1,   -1.3
2005/09/17 02:30,    0.4,    0.4,   -0.5,    0.3,    0.2,  999.0,  999.0,  999.0,  999.0,    0.0,   -0.2,   -0.4,    0.2,   -1.0,   -0.3,  999.0,  999.0,   -0.8,   -0.1,  999.0,    0.1,   -1.0,   -0.5,    0.2,   -1.6,   -1.4,   -1.3,   -1.3,   -1.1,   -1.4
2005/09/17 02:40,    0.5,    0.6,  999.0,    0.7,    0.3,    0.0,   -0.3,   -0.3,   -0.5,   -0.3,   -0.3,    0.1,   -0.0,  999.0,   -0.2,   -0.3,   -2.1,   -3.6,   -3.0,   -3.0,   -2.0,   -1.4,   -1.2,   -1.3,   -1.4,   -1.3,   -1.2,   -1.2,   -1.3,   -1.4
2005/09/17 02:50,    0.4,  999.0,  999.0,  999.0,  999.0,   -0.2,   -0.3,    0.0,    0.1,   -0.3,   -0.7,  999.0,   -0.2,    0.2,  999.0,   -3.7,   -4.0,   -4.1,   -3.7,   -3.5,   -2.2,   -1.5,   -1.6,   -1.6,   -1.6,   -1.5,   -1.4,   -1.3,   -1.2,   -1.2
2005/09/17 03:00,   -0.3,  999.0,  999.0,  999.0,  999.0,    0.5,   -0.1,  999.0,  999.0,    0.1,   -0.3,   -0.0,    0.2,    0.1,   -5.3,   -4.6,   -4.4,   -4.2,   -4.0,   -3.5,   -1.9,   -1.5,   -1.6,   -1.4,   -1.5,   -1.7,   -1.6,   -1.6,   -1.6,   -1.5
2005/09/17 03:10,    0.2,    2.5,  999.0,  999.0,    0.0,    0.0,  999.0,   -0.1,  999.0,    0.5,   -0.4,  999.0,  999.0,   -4.7,   -4.6,   -4.5,   -4.5,   -4.4,   -4.5,   -4.0,   -1.6,   -1.5,   -1.5,   -1.6,   -1.6,   -1.6,   -1.7,   -1.7,   -1.5,   -1.4
2005/09/17 03:20,  999.0,  999.0,   -0.1,  999.0,  999.0,  999.0,  999.0,   -0.0,  999.0,  999.0,  999.0,   -4.5,   -3.8,   -4.7,   -4.6,   -3.8,   -4.1,   -4.2,   -4.3,   -4.4,   -2.3,   -1.9,   -1.5,   -1.5,   -1.4,   -1.4,   -1.5,   -1.4,   -1.3,   -1.4
2005/09/17 03:30,   -0.3,  999.0,  999.0,  999.0,  999.0,  999.0,  999.0,  999.0,  999.0,   -5.0,   -4.9,   -4.6,   -4.5,   -4.6,   -4.6,   -4.3,   -4.6,   -4.7,   -4.3,   -4.4,  999.0,   -1.5,   -1.4,   -1.3,   -1.5,   -1.4,   -1.4,   -1.3,   -1.3,   -1.2
2005/09/17 03:40,   -0.1,   -0.1,   -4.7,   -5.4,  999.0,   -5.7,   -5.2,   -5.0,   -5.0,   -5.1,   -5.1,   -4.9,   -4.7,   -4.6,   -4.4,   -4.3,   -4.3,   -4.1,   -3.8,   -3.9,   -2.5,   -1.7,   -1.0,   -0.8,   -1.1,   -1.3,   -1.2,   -1.4,   -1.2,   -1.3
2005/09/17 03:50,  999.0,  999.0,   -3.5,   -3.3,   -4.8,  999.0,  999.0,  999.0,  999.0,  999.0,  999.0,  999.0,  999.0,  999.0,  999.0,  999.0,  999.0,  999.0,   -3.0,   -3.0,   -2.6,   -1.7,   -0.4,  999.0,   -0.6,   -0.8,   -1.3,   -1.2,   -1.2,   -0.9
2005/09/17 04:00,  999.0,  999.0,   -4.2,   -3.7,   -3.2,   -2.6,  999.0,  999.0,  999.0,  999.0,  999.0,   -0.1,    0.1,   -0.2,   -0.1,   -0.0,  999.0,   -0.1,  999.0,  999.0,  999.0,  999.0,  999.0,   -0.1,  999.0,  999.0,  999.0,   -1.0,   -0.9,   -1.0
2005/09/17 04:10,   -0.1,   -0.6,   -0.6,  999.0,  999.0,   -0.1,   -0.7,   -0.6,   -0.7,   -1.0,    0.4,   -0.5,    0.0,  999.0,    0.0,    0.3,    0.0,  999.0,    0.3,  999.0,    0.0,   -0.1,   -0.1,   -0.2,   -0.6,   -1.2,   -1.5,   -1.5,   -1.4,   -1.3
2005/09/17 04:20,   -0.1,   -0.5,   -0.4,   -0.6,   -0.8,   -0.9,   -0.7,   -0.7,   -1.0,   -0.9,   -0.5,   -0.5,   -0.1,    0.0,   -0.0,    0.1,   -0.1,    0.2,    0.1,    0.2,  999.0,   -0.1,    0.1,    0.0,   -0.6,   -1.4,   -1.6,   -1.4,   -1.3,   -1.5
2005/09/17 04:30,    1.0,   -0.1,   -0.2,   -0.2,  999.0,   -0.8,   -0.2,   -0.6,   -0.4,  999.0,   -0.6,   -0.3,  999.0,    0.0,   -0.1,   -0.1,  999.0,    0.1,   -0.1,    0.1,  999.0,    0.0,    0.0,   -0.3,  999.0,   -1.0,   -1.6,   -1.4,   -1.4,   -1.5
2005/09/17 04:40,  999.0,   -0.2,   -0.2,   -0.1,  999.0,   -0.8,   -0.3,   -0.2,   -0.3,   -0.3,  999.0,   -0.2,   -0.3,   -0.0,    0.0,    0.0,  999.0,    0.1,   -0.1,    0.2,    0.2,    0.1,   -0.1,   -0.3,   -1.2,   -1.5,   -1.5,   -1.5,   -1.2,   -0.9
2005/09/17 04:50,    0.5,    0.2,    0.2,    0.2,  999.0,  999.0,  999.0,    0.1,  999.0,  999.0,  999.0,   -0.1,    0.1,    0.1,    0.2,  999.0,  999.0,    0.1,   -0.3,   -0.1,    0.2,   -0.0,    0.2,    0.1,   -0.9,  999.0,   -1.1,   -0.9,   -0.5,   -0.4
2005/09/17 05:00,    0.1,   -0.2,   -0.1,   -0.2,   -0.3,  999.0,  999.0,   -0.0,    0.1,  999.0,  999.0,    0.2,   -0.0,    0.1,   -0.1,  999.0,  999.0,  999.0,   -0.1,  999.0,   -0.3,   -0.1,   -0.0,    0.0,  999.0,  999.0,   -1.1,   -1.2,   -1.1,   -1.1
2005/09/17 05:10,    0.1,   -0.2,   -0.1,   -0.2,  999.0,  999.0,   -0.2,    0.0,  999.0,  999.0,  999.0,  999.0,    0.2,   -0.1,  999.0,   -0.3,  999.0,   -0.1,   -0.1,    0.7,  999.0,  999.0,   -0.0,    0.2,  999.0,  999.0,   -1.0,  999.0,  999.0,  999.0
2005/09/17 05:20,   -0.1,   -0.1,    0.1,   -0.2,  999.0,  999.0,  999.0,   -0.5,   -0.4,   -0.3,  999.0,  999.0,  999.0,   -0.0,  999.0,  999.0,  999.0,  999.0,   -0.1,  999.0,  999.0,    0.4,    0.2,    0.1,  999.0,  999.0,  999.0,  999.0,   -0.3,   -1.2
2005/09/17 05:30,    0.5,   -0.2,   -0.0,   -0.2,  999.0,  999.0,  999.0,   -0.9,   -0.8,  999.0,  999.0,  999.0,  999.0,  999.0,  999.0,   -0.1,  999.0,  999.0,  999.0,  999.0,  999.0,   -0.1,    0.1,    0.1,  999.0,  999.0,  999.0,  999.0,  999.0,   -1.3
2005/09/17 05:40,   -0.2,    0.3,   -0.2,   -0.4,   -1.4,   -1.3,  999.0,   -0.5,   -1.1,   -0.6,  999.0,  999.0,   -0.3,   -0.1,  999.0,  999.0,  999.0,    0.2,   -0.1,  999.0,  999.0,  999.0,    0.0,  999.0,  999.0,  999.0,  999.0,  999.0,  999.0,   -1.3
2005/09/17 05:50,  999.0,   -0.1,   -0.2,   -0.3,   -2.4,   -1.1,   -0.4,   -0.5,   -0.6,   -0.6,  999.0,    0.1,   -0.2,   -0.1,    0.1,  999.0,  999.0,  999.0,   -0.5,    0.0,   -0.1,  999.0,   -0.1,    0.0,  999.0,  999.0,  999.0,  999.0,  999.0,   -0.4
2005/09/17 06:00,    0.2,  999.0,    0.0,    0.1,  999.0,   -0.2,   -0.7,  999.0,   -0.4,   -0.5,  999.0,   -0.3,  999.0,   -0.1,   -0.0,   -0.1,  999.0,   -0.0,    0.1,   -0.1,  999.0,  999.0,   -0.1,    0.2,    0.0,  999.0,  999.0,  999.0,  999.0,  999.0
2005/09/17 06:10,   -0.1,    0.2,   -0.0,    0.0,  999.0,  999.0,    0.2,   -0.1,  999.0,   -0.2,   -0.2,    0.1,  999.0,   -0.3,  999.0,  999.0,  999.0,  999.0,  999.0,    0.0,  999.0,    0.1,    0.1,   -0.0,  999.0,   -0.3,  999.0,  999.0,  999.0,  999.0
2005/09/17 06:20,    0.3,    0.1,    0.0,   -0.1,  999.0,  999.0,    0.4,    0.0,    0.4,  999.0,  999.0,  999.0,  999.0,    0.1,    0.1,  999.0,  999.0,  999.0,  999.0,  999.0,  999.0,  999.0,   -0.2,   -0.1,  999.0,  999.0,  999.0,  999.0,  999.0,  999.0
2005/09/17 06:30,   -0.1,   -0.3,   -0.2,  999.0,   -0.6,   -0.5,   -0.1,  999.0,    0.2,  999.0,    0.1,    0.3,  999.0,    0.1,   -0.3,    0.2,  999.0,  999.0,    0.1,  999.0,  999.0,  999.0,  999.0,  999.0,  999.0,  999.0,  999.0,  999.0,  999.0,  999.0
2005/09/17 06:40,    0.6,   -0.1,    0.0,   -0.2,  999.0,  999.0,   -0.1,  999.0,   -0.4,  999.0,   -0.1,   -0.1,  999.0,  999.0,    0.0,  999.0,  999.0,  999.0,  999.0,  999.0,  999.0,    0.1,   -0.0,    0.1,  999.0,  999.0,  999.0,  999.0,  999.0,  999.0
2005/09/17 06:50,    0.2,  999.0,  999.0,  999.0,  999.0,   -0.0,   -0.1,  999.0,   -0.1,  999.0,  999.0,   -0.4,  999.0,  999.0,    0.0,  999.0,  999.0,    0.2,    0.1,  999.0,  999.0,    0.2,    0.1,   -0.2,  999.0,  999.0,  999.0,   -0.0,  999.0,  999.0
2005/09/17 07:00,    0.3,  999.0,  999.0,  999.0,  999.0,  999.0,   -0.1,  999.0,   -0.1,  999.0,  999.0,    0.2,  999.0,  999.0,    0.1,  999.0,  999.0,  999.0,  999.0,  999.0,   -0.2,   -0.1,    0.1,    0.3,  999.0,  999.0,  999.0,  999.0,  999.0,  999.0
2005/09/17 07:10,   -0.1,  999.0,  999.0,  999.0,  999.0,  999.0,   -0.1,  999.0,   -0.0,  999.0,  999.0,    0.3,  999.0,    0.1,    0.1,  999.0,  999.0,    0.4,  999.0,  999.0,  999.0,   -0.2,    0.0,   -0.1,  999.0,  999.0,  999.0,  999.0,  999.0,  999.0
2005/09/17 07:20,   -0.2,  999.0,  999.0,  999.0,  999.0,  999.0,  999.0,    0.3,    0.2,  999.0,  999.0,   -0.1,   -0.1,   -0.3,    0.2,    0.1,  999.0,  999.0,    0.2,    0.2,  999.0,   -0.1,    0.0,   -0.3,  999.0,   -0.2,  999.0,  999.0,  999.0,   -0.2
2005/09/17 07:30,   -0.5,  999.0,  999.0,  999.0,  999.0,  999.0,   -0.8,   -0.9,   -0.3,  999.0,   -0.1,   -0.2,   -0.0,  999.0,    0.0,  999.0,  999.0,  999.0,  999.0,   -0.0,   -0.0,    0.1,  999.0,  999.0,  999.0,  999.0,  999.0,  999.0,   -0.2,  999.0
2005/09/17 07:40,   -0.6,  999.0,  999.0,  999.0,  999.0,  999.0,  999.0,   -0.7,   -0.5,  999.0,  999.0,  999.0,    0.1,    0.0,    0.2,  999.0,  999.0,   -0.0,  999.0,   -0.2,   -0.1,   -0.0,   -0.1,  999.0,  999.0,  999.0,  999.0,  999.0,  999.0,  999.0
2005/09/17 07:50,  999.0,  999.0,  999.0,  999.0,  999.0,  999.0,   -0.2,  999.0,   -0.0,  999.0,   -0.7,   -0.5,    0.1,   -0.1,    0.1,  999.0,  999.0,   -0.1,  999.0,  999.0,  999.0,    0.1,    0.1,    0.0,  999.0,  999.0,  999.0,  999.0,  999.0,  999.0
2005/09/17 08:00,  999.0,  999.0,  999.0,  999.0,  999.0,  999.0,   -0.7,  999.0,    0.1,  999.0,  999.0,   -0.0,   -0.0,   -0.0,  999.0,  999.0,  999.0,  999.0,   -0.1,  999.0,  999.0,  999.0,  999.0,    0.0,  999.0,  999.0,  999.0,  999.0,  999.0,    0.1
2005/09/17 08:10,    0.1,    0.2,  999.0,  999.0,  999.0,   -0.7,   -0.5,   -0.2,   -0.8,  999.0,    0.0,   -0.1,   -0.1,   -0.2,   -0.0,  999.0,  999.0,  999.0,  999.0,  999.0,    0.2,  999.0,    0.2,  999.0,  999.0,  999.0,  999.0,  999.0,   -0.0,  999.0
2005/09/17 08:20,    0.5,  999.0,  999.0,  999.0,  999.0,    0.4,   -0.0,   -0.1,  999.0,  999.0,  999.0,    0.1,   -0.2,   -0.1,    0.2,  999.0,  999.0,  999.0,  999.0,  999.0,   -0.2,  999.0,  999.0,   -0.3,  999.0,  999.0,  999.0,  999.0,  999.0,  999.0
2005/09/17 08:30,    0.2,    0.4,    0.0,  999.0,  999.0,  999.0,    0.8,    0.4,    0.2,  999.0,   -0.8,   -0.2,   -0.2,   -0.3,  999.0,  999.0,  999.0,  999.0,  999.0,  999.0,  999.0,  999.0,  999.0,  999.0,  999.0,  999.0,  999.0,  999.0,  999.0,  999.0
2005/09/17 08:40,   -0.2,    0.3,    0.1,   -0.3,  999.0,  999.0,  999.0,  999.0,    0.2,   -0.1,  999.0,  999.0,  999.0,  999.0,   -0.1,  999.0,  999.0,  999.0,  999.0,  999.0,  999.0,  999.0,  999.0,   -0.3,  999.0,  999.0,  999.0,  999.0,  999.0,  999.0
2005/09/17 08:50,    0.5,    0.3,   -0.2,   -0.2,  999.0,  999.0,   -0.7,   -0.5,   -0.2,   -0.5,  999.0,  999.0,   -0.2,   -0.0,    0.0,   -0.1,  999.0,  999.0,  999.0,    0.4,   -0.3,    0.0,   -0.1,    0.3,  999.0,  999.0,  999.0,  999.0,  999.0,  999.0
2005/09/17 09:00,    0.3,  999.0,   -0.7,   -0.7,  999.0,   -0.9,   -0.7,   -0.2,  999.0,   -1.0,  999.0,   -0.4,   -0.5,   -0.0,   -0.2,  999.0,  999.0,  999.0,  999.0,  999.0,  999.0,  999.0,   -0.1,    0.0,  999.0,  999.0,  999.0,  999.0,  999.0,  999.0
2005/09/17 09:10,    0.2,  999.0,   -0.3,   -0.3,  999.0,   -0.8,   -0.5,  999.0,  999.0,   -0.6,  999.0,   -0.5,  999.0,    0.1,    0.1,    0.2,  999.0,   -0.2,  999.0,   -0.1,  999.0,    0.1,   -0.1,   -0.2,  999.0,  999.0,  999.0,  999.0,  999.0,  999.0
2005/09/17 09:20,    0.3,    0.1,    0.0,   -0.3,  999.0,   -0.3,  999.0,    0.1,  999.0,   -0.1,  999.0,   -0.8,   -0.1,   -0.3,   -0.2,  999.0,  999.0,  999.0,  999.0,  999.0,  999.0,  999.0,  999.0,   -0.1,  999.0,  999.0,  999.0,  999.0,  999.0,  999.0
2005/09/17 09:30,    0.1,    0.2,   -0.2,   -0.7,  999.0,   -0.3,  999.0,    0.1,   -0.4,  999.0,   -0.1,  999.0,   -0.2,    0.0,    0.1,  999.0,  999.0,  999.0,  999.0,  999.0,  999.0,  999.0,  999.0,   -0.3,  999.0,  999.0,  999.0,  999.0,  999.0,  999.0
2005/09/17 09:40,    0.2,    0.2,    0.0,    0.0,  999.0,  999.0,  999.0,    0.2,  999.0,  999.0,   -0.1,   -0.3,   -0.1,   -0.1,    0.0,  999.0,  999.0,  999.0,   -0.1,  999.0,  999.0,  999.0,  999.0,  999.0,  999.0,  999.0,  999.0,  999.0,  999.0,  999.0
2005/09/17 09:50,    0.1,   -0.1,   -0.1,   -0.3,   -1.4,   -1.1,  999.0,   -0.8,   -0.6,   -0.5,   -0.4,   -0.1,   -0.1,    0.0,   -0.0,   -0.3,  999.0,  999.0,   -0.2,  999.0,    0.2,    0.2,   -0.1,   -0.2,  999.0,  999.0,  999.0,  999.0,  999.0,  999.0
2005/09/17 10:00,    0.4,  999.0,   -0.2,   -0.6,   -0.5,   -0.4,   -0.6,   -0.1,   -0.7,   -0.4,  999.0,   -0.2,    0.1,   -0.2,  999.0,    0.2,  999.0,   -0.2,    0.3,  999.0,  999.0,  999.0,   -0.1,    0.0,  999.0,  999.0,  999.0,  999.0,    0.1,  999.0
2005/09/17 10:10,   -0.1,   -0.2,   -0.3,   -0.3,   -0.2,    0.1,    0.2,   -0.9,  999.0,  999.0,  999.0,   -0.1,    0.0,    0.2,    0.2,    0.2,  999.0,    0.2,   -0.1,  999.0,   -0.0,  999.0,    0.1,    0.2,  999.0,  999.0,  999.0,  999.0,   -0.0,  999.0
2005/09/17 10:20,    0.2,   -0.0,   -0.2,   -0.1,   -0.3,   -0.3,   -0.6,   -0.3,  999.0,  999.0,    0.3,   -0.0,   -0.1,   -0.0,    0.1,    0.1,  999.0,  999.0,   -0.0,   -0.0,    0.1,    0.2,   -0.0,  999.0,  999.0,  999.0,  999.0,  999.0,    0.1,  999.0
2005/09/17 10:30,    0.0,   -0.1,    0.1,   -0.0,   -0.2,   -0.3,   -0.3,  999.0,  999.0,  999.0,  999.0,   -0.4,   -0.0,    0.0,    0.1,  999.0,  999.0,    0.0,    0.1,    0.2,  999.0,   -0.2,   -0.0,    0.0,  999.0,  999.0,  999.0,  999.0,    0.1,  999.0
2005/09/17 10:40,   -0.2,   -0.2,    0.1,    0.1,   -0.3,   -0.2,   -0.5,   -0.4,  999.0,  999.0,   -0.3,    0.0,   -0.1,    0.1,    0.1,   -0.1,   -0.1,   -0.0,    0.3,    0.4,   -0.1,   -0.1,   -0.1,    0.1,  999.0,  999.0,  999.0,  999.0,   -0.2,    0.3
2005/09/17 10:50,   -0.2,   -0.1,    0.0,   -0.5,   -0.3,   -0.3,   -0.8,   -1.0,  999.0,  999.0,  999.0,   -0.2,    0.1,   -0.0,    0.1,   -0.1,   -0.1,    0.2,    0.4,    0.1,   -0.3,   -0.0,   -0.1,  999.0,  999.0,  999.0,  999.0,  999.0,    0.1,  999.0
2005/09/17 11:00,   -0.4,   -0.7,   -0.6,   -0.5,   -0.5,   -0.4,   -0.4,   -0.1,    0.4,  999.0,  999.0,    0.1,   -0.2,   -0.2,   -0.3,   -0.1,    0.0,    0.1,  999.0,  999.0,  999.0,   -0.0,  999.0,    0.1,  999.0,  999.0,  999.0,  999.0,   -0.1,  999.0
2005/09/17 11:10,   -0.3,   -0.3,   -0.4,   -0.4,   -0.7,   -0.5,   -0.7,   -0.0,   -0.3,  999.0,  999.0,    0.0,   -0.4,   -0.4,   -0.1,   -0.1,   -0.0,   -0.0,   -0.1,  999.0,   -0.1,   -0.2,    0.0,   -0.1,  999.0,  999.0,  999.0,  999.0,  999.0,  999.0
2005/09/17 11:20,    0.1,    0.1,   -0.1,   -0.3,   -0.5,   -0.9,   -0.5,   -0.5,   -0.9,  999.0,  999.0,   -0.2,   -0.4,   -0.5,    0.1,   -0.0,   -0.1,  999.0,    0.0,    0.1,   -0.3,   -0.1,    0.0,    0.1,  999.0,  999.0,  999.0,  999.0,   -0.1,   -0.1
2005/09/17 11:30,   -0.3,   -0.0,    0.2,   -0.0,   -0.2,   -1.3,   -1.1,   -0.6,   -0.4,  999.0,  999.0,   -0.0,   -0.3,   -0.1,    0.0,  999.0,    0.3,   -0.8,   -0.2,  999.0,   -0.0,   -0.5,   -0.3,    0.1,  999.0,  999.0,  999.0,  999.0,  999.0,    0.1
2005/09/17 11:40,    0.4,   -0.3,    0.0,   -0.3,   -0.2,   -0.3,   -0.6,   -0.9,   -1.3,   -0.5,  999.0,    0.3,   -0.7,   -0.5,   -0.1,   -0.1,    0.2,   -0.1,   -0.0,   -0.0,  999.0,    0.1,    0.1,  999.0,  999.0,  999.0,  999.0,  999.0,   -0.0,    0.0
2005/09/17 11:50,    0.2,   -0.1,    0.7,    0.8,    0.4,    0.8,   -0.3,   -0.5,    0.6,    1.2,  999.0,    0.0,    0.4,    0.1,    0.1,   -0.0,   -0.1,   -0.1,    0.1,    0.2,   -0.1,   -0.1,    0.1,   -0.2,  999.0,  999.0,  999.0,  999.0,  999.0,  999.0
2005/09/17 12:00,    1.3,    1.2,    0.5,    0.1,   -0.1,    0.2,   -0.8,   -0.3,   -0.8,   -0.8,   -1.1,    0.7,   -0.1,   -0.0,   -0.3,   -0.1,   -0.1,   -0.0,   -0.2,    0.3,   -0.1,   -0.1,    0.1,  999.0,  999.0,  999.0,  999.0,  999.0,   -0.1,    0.5
2005/09/17 12:10,    0.8,    0.9,    0.7,   -0.1,    0.3,    0.1,   -1.8,   -1.7,   -1.5,   -1.5,   -2.4,    1.3,   -0.3,   -0.3,   -0.2,  999.0,  999.0,    0.1,   -0.3,   -0.2,   -0.1,   -0.1,    0.0,    0.1,  999.0,  999.0,  999.0,  999.0,   -0.2,   -0.1
2005/09/17 12:20,    0.1,    0.1,   -0.1,    0.0,    0.6,   -1.1,   -0.2,   -0.3,   -1.4,    0.1,   -0.2,   -0.5,   -0.2,   -0.2,   -0.1,    0.1,    0.2,    0.1,  999.0,    0.0,  999.0,    0.2,    0.1,   -0.2,  999.0,  999.0,  999.0,  999.0,    0.1,  999.0
2005/09/17 12:30,    0.5,    0.9,    0.3,    0.3,    0.3,   -1.0,   -0.4,   -1.0,   -0.2,   -1.4,  999.0,   -0.5,   -1.0,   -0.3,   -0.2,   -0.1,   -0.0,   -0.0,  999.0,  999.0,   -0.2,  999.0,    0.2,   -0.0,  999.0,  999.0,  999.0,  999.0,  999.0,  999.0
2005/09/17 12:40,    0.1,   -0.0,   -0.1,   -0.2,   -0.2,   -1.4,   -1.2,   -0.9,   -1.1,   -0.8,   -0.5,    0.1,   -1.7,   -0.3,   -0.2,   -0.3,    0.0,    0.1,  999.0,   -0.1,  999.0,    0.2,   -0.0,   -0.0,  999.0,  999.0,  999.0,  999.0,   -0.2,  999.0
2005/09/17 12:50,    0.0,    0.5,    0.3,    0.0,   -0.1,   -0.7,   -0.3,   -0.2,   -0.6,   -1.3,   -0.5,  999.0,   -0.3,   -0.4,   -0.0,   -0.1,    0.0,   -0.1,    0.2,   -0.0,    0.4,  999.0,    0.0,    0.0,  999.0,  999.0,  999.0,  999.0,  999.0,  999.0
2005/09/17 13:00,    0.0,    0.6,    0.4,    0.0,   -0.2,   -0.3,   -0.0,   -1.0,   -1.4,  999.0,   -2.2,  999.0,  999.0,   -0.5,   -0.0,    0.1,    0.0,  999.0,   -0.0,    0.0,  999.0,   -0.1,    0.2,    0.1,  999.0,  999.0,  999.0,  999.0,  999.0,  999.0
2005/09/17 13:10,   -0.7,    0.3,    0.3,   -0.1,   -0.3,   -0.2,   -0.2,   -0.5,   -0.5,   -0.9,   -0.7,   -0.6,   -0.5,   -0.8,   -0.2,    0.1,   -0.2,   -0.0,    0.1,   -0.1,    0.1,  999.0,  999.0,    0.1,  999.0,  999.0,  999.0,  999.0,  999.0,  999.0
2005/09/17 13:20,    0.0,    0.6,    0.8,    0.6,    0.4,   -0.0,   -0.0,    0.0,    0.1,   -0.6,    0.9,   -0.3,   -0.4,   -0.3,   -0.1,   -0.2,    0.1,   -0.2,   -0.1,    0.2,    0.1,    0.0,   -0.0,    0.1,  999.0,  999.0,  999.0,  999.0,  999.0,  999.0
2005/09/17 13:30,   -0.1,   -0.3,    0.1,    0.0,    0.2,    0.2,    0.1,   -0.7,   -0.2,   -0.6,   -0.3,   -0.5,   -0.7,   -0.5,   -0.2,   -0.4,   -0.1,   -0.1,  999.0,    0.1,  999.0,  999.0,    0.1,   -0.1,  999.0,  999.0,  999.0,  999.0,  999.0,  999.0
2005/09/17 13:40,    0.1,    0.6,    0.8,    0.3,    0.1,    0.3,    0.1,   -0.7,   -0.3,   -0.5,    0.6,   -0.1,    0.1,    0.2,    0.0,   -0.0,   -0.1,    0.1,   -0.1,    0.3,    0.0,  999.0,    0.0,   -0.0,  999.0,  999.0,  999.0,  999.0,  999.0,  999.0
2005/09/17 13:50,    0.3,    0.2,    0.7,    0.5,    0.5,    0.2,    0.1,    0.2,    0.3,   -0.3,  999.0,    0.2,    0.5,    0.1,    0.1,    0.0,    0.1,    0.0,    0.0,  999.0,  999.0,  999.0,   -0.2,    0.1,  999.0,  999.0,  999.0,  999.0,  999.0,  999.0
2005/09/17 14:00,    0.6,    0.6,    0.5,    1.0,    0.6,    1.0,    0.7,    0.8,    0.0,  999.0,   -0.4,  999.0,    0.3,   -0.4,   -0.4,   -0.5,   -0.7,   -0.1,  999.0,   -0.1,  999.0,  999.0,  999.0,  999.0,  999.0,  999.0,  999.0,  999.0,    0.2,  999.0
2005/09/17 14:10,    0.2,    0.5,    0.2,    0.0,    0.3,    0.2,    0.6,   -0.1,    0.7,  999.0,    0.9,   -0.2,   -0.8,   -0.6,   -0.5,   -0.4,   -0.5,   -0.1,  999.0,  999.0,  999.0,   -0.0,   -0.1,    0.1,  999.0,  999.0,  999.0,  999.0,   -0.2,  999.0
2005/09/17 14:20,    0.6,    0.7,    0.3,    0.7,    0.7,    1.0,    1.0,    1.0,   -0.4,   -0.9,   -0.5,   -0.4,   -0.1,   -0.3,  999.0,   -0.7,   -0.5,   -0.2,    0.0,  999.0,   -0.3,  999.0,    0.0,   -0.1,  999.0,  999.0,  999.0,  999.0,  999.0,  999.0
2005/09/17 14:30,    0.2,    0.5,    0.9,    1.1,    1.3,    1.0,    1.0,    1.2,   -0.3,   -1.5,   -1.7,   -2.3,   -2.5,   -1.6,   -0.6,   -0.5,    0.1,   -0.4,   -0.2,   -0.2,    0.1,   -0.1,  999.0,    0.2,  999.0,  999.0,  999.0,  999.0,  999.0,  999.0
2005/09/17 14:40,   -0.1,   -0.1,    0.1,   -0.0,    0.2,   -0.5,   -0.5,   -0.6,   -1.2,   -1.0,   -3.1,   -2.6,   -0.9,   -0.1,   -0.4,   -0.9,   -0.0,   -0.1,   -0.2,    0.0,   -0.1,   -0.2,    0.1,    0.1,  999.0,  999.0,  999.0,  999.0,  999.0,  999.0
2005/09/17 14:50,    0.5,    0.6,    0.1,    0.1,   -0.2,   -0.2,   -0.6,   -0.7,   -0.8,   -0.8,  999.0,  999.0,   -0.2,    0.0,    0.1,   -0.2,    0.1,    0.0,   -0.0,    0.0,   -0.2,  999.0,   -0.1,    0.1,  999.0,  999.0,  999.0,  999.0,    0.2,  999.0
2005/09/17 15:00,    0.6,    0.5,    0.5,    0.3,    0.3,   -0.5,   -0.4,   -0.5,   -0.7,   -1.3,  999.0,   -0.8,   -0.3,   -0.2,    0.8,   -0.5,   -0.2,   -0.1,   -0.3,    0.5,   -0.1,    0.3,   -0.0,    0.3,  999.0,  999.0,  999.0,  999.0,  999.0,  999.0
2005/09/17 15:10,   -0.1,   -0.5,   -0.4,   -0.1,   -0.3,   -0.6,   -0.6,   -0.7,   -0.0,   -1.1,  999.0,    0.0,   -0.1,    0.1,  999.0,   -0.2,   -0.4,   -0.2,    0.1,  999.0,   -0.3,    0.5,   -0.1,  999.0,  999.0,  999.0,  999.0,  999.0,  999.0,  999.0
2005/09/17 15:20,   -0.1,   -0.5,   -0.4,   -0.2,   -0.5,   -0.4,   -0.4,   -0.7,   -0.8,   -1.0,  999.0,    0.0,   -0.1,   -0.2,    0.1,  999.0,  999.0,   -0.2,    0.0,    0.1,  999.0,  999.0,    0.0,    0.2,  999.0,  999.0,  999.0,  999.0,  999.0,  999.0
2005/09/17 15:30,   -0.1,   -0.4,   -0.7,   -0.6,   -0.9,   -0.4,   -0.6,   -0.5,   -0.4,  999.0,   -0.7,   -0.0,    0.1,   -0.3,    0.1,    0.2,    0.3,   -0.2,   -0.1,   -0.1,  999.0,  999.0,   -0.1,   -0.1,  999.0,  999.0,  999.0,  999.0,  999.0,  999.0
2005/09/17 15:40,   -0.4,   -0.4,   -0.4,   -0.6,   -0.8,   -0.5,   -0.5,   -0.6,   -0.3,  999.0,  999.0,   -0.2,   -0.0,  999.0,    0.1,    0.0,    0.7,   -0.1,    0.1,    0.0,  999.0,    0.4,   -0.3,    0.1,    0.4,  999.0,  999.0,  999.0,  999.0,  999.0
2005/09/17 15:50,    0.6,    0.1,   -0.0,   -1.0,   -0.2,   -0.5,   -0.8,   -0.3,  999.0,  999.0,   -0.8,    0.5,   -0.1,    0.1,   -0.4,    0.0,    0.2,    0.1,    0.1,    0.3,  999.0,    0.0,    0.1,   -0.3,   -0.1,  999.0,  999.0,  999.0,  999.0,  999.0
2005/09/17 16:00,   -0.5,   -0.8,   -0.8,   -0.7,   -0.6,   -0.2,   -0.3,   -0.6,   -1.3,   -0.9,  999.0,  999.0,   -0.0,   -0.1,  999.0,  999.0,    0.0,    0.0,   -0.1,    0.0,  999.0,  999.0,    0.1,  999.0,  999.0,  999.0,  999.0,  999.0,  999.0,  999.0
2005/09/17 16:10,   -0.2,   -0.4,   -0.4,   -0.3,   -0.0,   -0.3,   -0.1,   -0.1,   -0.3,   -0.4,  999.0,    0.2,    0.1,    0.0,   -0.1,   -0.1,   -0.0,    0.1,   -0.1,    0.0,  999.0,  999.0,    0.0,   -0.1,  999.0,  999.0,  999.0,  999.0,  999.0,  999.0
2005/09/17 16:20,   -0.2,   -0.3,   -0.4,   -0.5,   -0.4,   -1.0,   -0.4,   -0.9,   -0.8,   -1.0,  999.0,   -0.4,   -0.3,    0.1,    0.3,  999.0,   -0.1,   -0.0,    0.1,    0.2,  999.0,    0.0,   -0.1,  999.0,  999.0,  999.0,  999.0,  999.0,  999.0,  999.0
2005/09/17 16:30,   -0.4,   -0.2,   -0.1,   -0.6,   -0.5,   -0.9,  999.0,   -0.7,   -1.0,   -1.2,   -1.4,   -0.2,   -0.4,   -0.2,  999.0,  999.0,  999.0,    0.1,    0.2,  999.0,  999.0,  999.0,   -0.2,    0.1,  999.0,  999.0,  999.0,  999.0,  999.0,  999.0
2005/09/17 16:40,   -0.2,   -0.2,   -0.2,   -0.1,    0.2,   -0.4,   -0.4,   -0.5,   -0.8,   -1.0,  999.0,  999.0,    0.0,   -0.1,    0.4,   -0.2,    0.1,    0.1,    0.2,    0.1,    0.1,    0.1,   -0.0,   -0.1,  999.0,   -0.0,  999.0,  999.0,  999.0,  999.0
2005/09/17 16:50,    0.0,   -0.3,   -0.7,   -0.5,   -0.4,   -0.9,   -0.5,   -0.7,   -0.9,   -1.3,  999.0,  999.0,   -0.0,    0.0,    0.4,  999.0,    0.1,    0.0,   -0.1,    0.1,  999.0,   -0.0,   -0.0,    0.0,  999.0,  999.0,  999.0,  999.0,  999.0,  999.0
2005/09/17 17:00,    0.4,    0.0,   -0.2,   -0.4,    0.2,   -1.2,   -0.7,   -0.8,   -1.0,   -0.6,  999.0,    0.1,   -0.2,   -0.1,   -0.3,  999.0,  999.0,  999.0,  999.0,  999.0,  999.0,  999.0,   -0.2,    0.1,  999.0,  999.0,  999.0,  999.0,  999.0,  999.0
2005/09/17 17:10,    0.1,   -0.2,   -0.0,    0.4,   -0.2,  999.0,   -0.3,   -0.6,   -0.6,   -0.4,  999.0,   -0.2,    0.2,    0.2,   -0.1,  999.0,    0.0,   -0.0,  999.0,  999.0,  999.0,  999.0,   -0.0,  999.0,  999.0,  999.0,  999.0,  999.0,  999.0,  999.0
2005/09/17 17:20,    0.4,    0.4,    0.1,    0.1,   -0.2,   -0.2,  999.0,   -0.6,   -0.7,   -0.8,   -0.8,    0.0,   -0.1,    0.2,    0.2,  999.0,    0.1,  999.0,  999.0,  999.0,  999.0,  999.0,   -0.1,    0.2,  999.0,  999.0,  999.0,  999.0,  999.0,  999.0
2005/09/17 17:30,    0.4,    0.5,    0.2,    0.0,  999.0,    0.1,   -0.2,   -0.4,   -0.4,   -0.6,   -0.8,  999.0,  999.0,  999.0,  999.0,  999.0,    0.1,  999.0,  999.0,  999.0,  999.0,  999.0,  999.0,    0.0,  999.0,  999.0,  999.0,  999.0,  999.0,  999.0
2005/09/17 17:40,    0.2,    0.5,    0.4,    0.1,  999.0,    0.8,    0.4,    0.5,    0.3,  999.0,  999.0,  999.0,  999.0,   -0.0,    0.0,    0.1,  999.0,  999.0,  999.0,  999.0,  999.0,   -0.2,   -0.3,   -0.1,  999.0,  999.0,  999.0,  999.0,  999.0,  999.0
2005/09/17 17:50,    0.8,    0.7,    1.2,    1.3,    1.3,  999.0,  999.0,  999.0,  999.0,  999.0,  999.0,  999.0,   -0.0,    0.5,    0.0,  999.0,    0.2,  999.0,    0.0,  999.0,  999.0,  999.0,  999.0,    0.0,  999.0,  999.0,  999.0,  999.0,    0.0,  999.0
2005/09/17 18:00,    0.9,    0.9,    0.3,    0.4,    0.8,  999.0,  999.0,  999.0,  999.0,  999.0,  999.0,  999.0,    0.2,   -0.1,    0.2,  999.0,  999.0,    0.2,    0.1,  999.0,  999.0,  999.0,  999.0,   -0.2,  999.0,  999.0,  999.0,  999.0,    0.0,  999.0
2005/09/17 18:10,    0.3,   -0.0,    0.2,   -0.0,    0.4,  999.0,  999.0,  999.0,  999.0,  999.0,  999.0,   -0.5,    0.2,   -0.0,   -0.2,   -0.2,    0.4,   -0.0,    0.3,  999.0,  999.0,    0.1,    0.5,    0.1,  999.0,  999.0,  999.0,  999.0,  999.0,  999.0
2005/09/17 18:20,   -0.1,    0.2,    0.4,   -0.4,  999.0,  999.0,  999.0,  999.0,  999.0,  999.0,  999.0,  999.0,    0.1,   -0.2,    0.1,   -0.2,  999.0,    0.3,   -0.2,  999.0,  999.0,    0.1,  999.0,    0.1,  999.0,  999.0,  999.0,  999.0,  999.0,  999.0
2005/09/17 18:30,   -0.3,    0.2,    0.3,   -0.5,  999.0,  999.0,  999.0,  999.0,  999.0,  999.0,  999.0,    0.1,    0.3,    0.1,    0.0,  999.0,    0.2,    0.1,    0.0,  999.0,  999.0,  999.0,    0.3,   -0.3,  999.0,  999.0,  999.0,  999.0,  999.0,  999.0
2005/09/17 18:40,    0.3,    1.2,    0.4,    1.8,    1.6,    0.5,    1.3,    1.0,  999.0,   -0.1,    1.9,  999.0,    0.0,    0.2,    0.1,  999.0,    0.2,    0.0,   -0.0,  999.0,    0.1,  999.0,    0.1,   -0.1,  999.0,  999.0,  999.0,  999.0,  999.0,  999.0
2005/09/17 18:50,    0.2,    0.3,    0.3,    0.0,    0.7,   -0.1,    0.7,    1.3,   -0.6,  999.0,  999.0,  999.0,    0.0,  999.0,    0.0,  999.0,    0.2,    0.3,   -0.0,    0.3,   -0.0,    0.3,   -0.2,    0.0,  999.0,  999.0,  999.0,  999.0,    0.1,  999.0
2005/09/17 19:00,  999.0,    0.4,    1.7,    0.4,   -0.3,    0.2,   -0.3,   -0.5,  999.0,  999.0,  999.0,  999.0,   -0.1,   -0.2,    0.0,   -0.1,  999.0,  999.0,    0.0,   -0.2,    0.1,    0.2,   -0.1,    0.0,  999.0,  999.0,  999.0,  999.0,    0.1,  999.0
2005/09/17 19:10,   -0.3,    0.3,   -1.0,   -1.3,   -0.7,   -0.7,   -0.4,   -0.7,    0.3,   -0.3,  999.0,  999.0,   -0.1,   -0.1,   -0.0,   -0.3,  999.0,    0.1,   -0.1,  999.0,  999.0,  999.0,   -0.2,    0.0,  999.0,   -0.0,  999.0,  999.0,   -0.1,  999.0
2005/09/17 19:20,   -0.1,   -0.3,    0.9,    0.0,    0.2,    0.2,   -0.3,   -0.2,   -1.8,    0.1,  999.0,  999.0,    0.2,    0.1,   -0.1,   -0.0,  999.0,   -0.1,   -0.1,   -0.0,  999.0,    0.3,   -0.1,    0.0,   -0.2,  999.0,  999.0,  999.0,  999.0,  999.0
2005/09/17 19:30,  999.0,    0.2,    0.3,   -0.1,  999.0,    0.3,    0.3,   -0.1,  999.0,  999.0,  999.0,  999.0,  999.0,    0.2,   -0.0,  999.0,  999.0,    0.2,   -0.0,  999.0,  999.0,  999.0,    0.1,    0.1,  999.0,  999.0,  999.0,  999.0,  999.0,    0.1
2005/09/17 19:40,    0.4,    0.4,    0.4,    0.0,   -0.1,    1.1,  999.0,  999.0,    0.4,   -0.2,  999.0,  999.0,    0.2,    0.1,    0.3,  999.0,    0.2,    0.0,   -0.2,  999.0,  999.0,  999.0,   -0.0,    0.1,  999.0,  999.0,  999.0,  999.0,  999.0,  999.0
2005/09/17 19:50,    0.5,    1.6,   -1.6,    0.3,    0.6,  999.0,   -0.5,   -0.4,  999.0,  999.0,  999.0,    0.1,  999.0,   -0.1,    0.0,    0.3,  999.0,  999.0,   -0.0,  999.0,  999.0,  999.0,    0.2,    0.0,  999.0,  999.0,  999.0,  999.0,    0.1,  999.0
2005/09/17 20:00,    0.3,    1.3,    1.3,    0.3,    0.4,  999.0,   -2.0,  999.0,   -0.4,  999.0,  999.0,   -0.6,    0.3,    0.0,    0.2,    0.7,  999.0,    0.2,    0.1,  999.0,  999.0,   -0.2,    0.1,    0.1,  999.0,  999.0,  999.0,  999.0,  999.0,  999.0
2005/09/17 20:10,  999.0,  999.0,  999.0,    1.6,    1.7,  999.0,   -0.1,    0.7,  999.0,    1.2,  999.0,    0.6,   -0.3,   -0.0,  999.0,  999.0,    0.8,    0.5,    0.2,  999.0,   -0.1,    0.1,    0.1,    0.1,  999.0,  999.0,  999.0,  999.0,    0.2,  999.0
2005/09/17 20:20,    0.3,    0.6,    1.8,  999.0,    1.9,  999.0,    0.1,  999.0,  999.0,   -0.2,  999.0,  999.0,   -0.2,  999.0,    0.0,    0.1,  999.0,    0.4,   -0.2,  999.0,    0.1,    0.4,    0.1,    0.1,  999.0,  999.0,  999.0,  999.0,  999.0,    0.1
2005/09/17 20:30,    0.9,    0.2,    0.1,  999.0,   -1.1,    0.2,    0.5,    0.4,  999.0,  999.0,  999.0,  999.0,    0.2,  999.0,   -0.3,  999.0,  999.0,    0.2,    0.2,  999.0,  999.0,  999.0,   -0.0,    0.1,  999.0,  999.0,  999.0,  999.0,  999.0,  999.0
2005/09/17 20:40,    0.6,  999.0,    1.4,  999.0,    1.6,  999.0,    0.4,    0.6,  999.0,  999.0,  999.0,  999.0,  999.0,   -0.0,  999.0,  999.0,  999.0,   -0.1,   -0.0,  999.0,    0.3,  999.0,  999.0,    0.0,  999.0,  999.0,  999.0,  999.0,  999.0,  999.0
2005/09/17 20:50,   -0.2,   -1.8,  999.0,  999.0,  999.0,  999.0,  999.0,  999.0,    0.2,   -0.3,  999.0,   -0.0,    0.2,    0.2,    0.3,   -0.1,    0.1,   -0.0,   -0.1,  999.0,  999.0,   -0.1,  999.0,    0.1,  999.0,  999.0,  999.0,  999.0,   -0.2,    0.9
2005/09/17 21:00,   -0.5,  999.0,  999.0,  999.0,  999.0,    1.0,  999.0,  999.0,  999.0,  999.0,    0.5,    0.4,   -0.1,   -0.1,    0.2,  999.0,   -0.2,   -0.3,  999.0,  999.0,  999.0,   -0.1,  999.0,  999.0,  999.0,  999.0,  999.0,  999.0,  999.0,  999.0
2005/09/17 21:10,  999.0,   -0.0,    1.3,    1.7,  999.0,    0.8,    0.8,  999.0,    0.6,    0.2,  999.0,  999.0,   -0.0,  999.0,    0.1,  999.0,  999.0,  999.0,   -0.1,  999.0,  999.0,  999.0,    0.0,  999.0,  999.0,  999.0,  999.0,  999.0,  999.0,  999.0
2005/09/17 21:20,    0.1,    0.1,    0.3,   -0.4,  999.0,    0.3,  999.0,    0.3,  999.0,    0.5,    1.0,  999.0,   -0.3,    0.1,   -0.1,    0.5,  999.0,  999.0,    0.9,  999.0,  999.0,   -0.7,    0.0,   -0.1,  999.0,  999.0,  999.0,  999.0,   -0.1,  999.0
2005/09/17 21:30,    0.0,  999.0,  999.0,  999.0,    0.2,  999.0,  999.0,  999.0,  999.0,    0.5,  999.0,  999.0,   -0.1,  999.0,    0.1,  999.0,  999.0,  999.0,  999.0,   -0.2,  999.0,  999.0,    0.0,    0.1,  999.0,  999.0,  999.0,  999.0,  999.0,  999.0
2005/09/17 21:40,    0.5,   -0.2,  999.0,    0.2,   -2.3,    0.6,    0.3,    0.4,    0.1,   -0.3,  999.0,   -0.3,  999.0,  999.0,    0.0,    0.1,    1.5,    0.2,    0.6,  999.0,  999.0,  999.0,   -0.2,    0.1,  999.0,  999.0,  999.0,  999.0,  999.0,  999.0
2005/09/17 21:50,    0.2,    0.2,    0.5,    0.7,    0.0,   -0.8,    0.0,   -0.8,  999.0,  999.0,    0.2,  999.0,    0.7,    1.0,    0.4,   -0.1,   -0.6,  999.0,  999.0,  999.0,  999.0,   -0.1,   -0.1,   -0.2,  999.0,  999.0,  999.0,  999.0,    0.3,   -0.0
2005/09/17 22:00,    0.4,  999.0,    0.3,  999.0,   -0.1,  999.0,  999.0,    0.4,  999.0,  999.0,    0.3,  999.0,    0.5,  999.0,  999.0,    0.3,  999.0,   -0.4,  999.0,   -0.2,  999.0,  999.0,   -0.1,   -0.3,   -0.3,  999.0,  999.0,  999.0,  999.0,  999.0
2005/09/17 22:10,    0.1,  999.0,    0.3,    0.6,    0.4,   -0.7,    0.7,    0.3,    0.2,   -0.1,   -0.3,    0.1,  999.0,   -0.1,    0.1,  999.0,  999.0,    1.3,  999.0,  999.0,  999.0,  999.0,   -0.0,   -0.1,  999.0,  999.0,  999.0,  999.0,  999.0,  999.0
2005/09/17 22:20,  999.0,  999.0,    0.1,   -0.2,   -0.9,   -0.2,   -0.3,  999.0,    0.0,    1.1,    0.4,   -0.1,  999.0,    0.1,    0.1,   -0.0,    0.2,  999.0,    0.4,   -0.1,   -0.0,   -0.1,    0.1,   -0.1,  999.0,  999.0,  999.0,  999.0,    0.1,    0.1
2005/09/17 22:30,    0.7,   -0.2,   -0.2,  999.0,   -0.6,   -0.4,  999.0,  999.0,    0.6,   -0.1,    0.4,   -0.2,    0.7,  999.0,   -0.1,  999.0,  999.0,  999.0,  999.0,  999.0,  999.0,  999.0,    0.1,    0.4,  999.0,  999.0,  999.0,  999.0,  999.0,  999.0
2005/09/17 22:40,    0.2,   -1.7,    0.3,    0.4,    0.6,    0.6,  999.0,   -0.2,    0.3,  999.0,    0.4,   -0.3,   -0.5,  999.0,    0.3,    0.9,  999.0,  999.0,  999.0,  999.0,  999.0,  999.0,    0.1,    0.1,  999.0,  999.0,  999.0,  999.0,  999.0,  999.0
2005/09/17 22:50,    0.2,    0.3,    0.5,    0.0,   -0.4,   -0.5,   -0.3,    0.6,   -0.8,  999.0,    0.5,   -0.0,    0.2,  999.0,   -0.2,  999.0,  999.0,  999.0,   -0.2,  999.0,  999.0,  999.0,  999.0,  999.0,  999.0,  999.0,  999.0,  999.0,   -0.1,  999.0
2005/09/17 23:00,  999.0,  999.0,   -0.2,    0.3,  999.0,    0.3,    0.3,   -0.6,  999.0,   -0.4,   -0.0,    0.1,  999.0,   -0.1,    0.2,   -0.4,    1.1,  999.0,   -0.5,  999.0,  999.0,  999.0,   -0.1,  999.0,  999.0,  999.0,  999.0,  999.0,  999.0,  999.0
2005/09/17 23:10,    0.3,  999.0,  999.0,  999.0,   -0.5,   -1.3,    0.0,    0.1,   -0.3,   -0.2,    0.6,   -0.1,  999.0,   -0.2,   -0.1,    0.5,  999.0,    0.2,   -0.1,  999.0,   -0.3,  999.0,   -0.1,   -0.1,  999.0,  999.0,  999.0,  999.0,   -0.4,  999.0
2005/09/17 23:20,  999.0,    0.0,   -0.1,    0.1,   -0.9,    0.2,    0.2,   -0.2,   -0.4,   -0.4,   -0.3,    0.0,  999.0,  999.0,    0.3,  999.0,  999.0,    0.4,    0.6,  999.0,  999.0,  999.0,    0.0,    0.1,  999.0,  999.0,  999.0,  999.0,   -0.2,  999.0
2005/09/17 23:30,   -0.1,    0.1,   -0.4,   -0.3,    0.2,    0.2,   -1.4,   -0.3,   -0.5,   -0.2,  999.0,   -0.2,    0.2,    0.4,   -0.1,   -0.0,   -0.1,   -0.1,  999.0,  999.0,  999.0,  999.0,   -0.1,    0.1,  999.0,  999.0,  999.0,  999.0,  999.0,   -0.1
2005/09/17 23:40,   -0.6,   -1.2,   -0.9,   -1.0,   -0.5,   -0.5,   -0.9,   -0.7,   -1.5,   -0.9,   -1.0,  999.0,    0.0,  999.0,  999.0,  999.0,    1.1,    0.1,    0.4,    0.1,  999.0,  999.0,    0.0,   -0.3,  999.0,  999.0,  999.0,  999.0,  999.0,  999.0
2005/09/17 23:50,    0.7,   -1.6,   -0.5,   -0.2,   -0.3,   -0.7,   -0.2,   -0.1,  999.0,    0.2,    0.4,   -0.3,   -0.1,   -0.2,    0.1,   -0.6,  999.0,    0.0,   -0.3,    0.1,  999.0,  999.0,    0.2,   -0.2,  999.0,  999.0,  999.0,  999.0,  999.0,  999.0
